When you browse on this site, cookies collect data to enhance your experience and personalize the content and advertising you see.
Visit our Privacy Policy to learn more. By continuing to use the site, you agree to this use of cookies and data.
  • In United Kingdom
  • List of Countries
  • For 7 days
  • Water Temperature
  • Satellite Maps
  • Weather Map
  • Weather Widgets
  • user-avatar
    Login

    Hourly Weather Yangikishlak

    Today, 24 May, Friday

    Time Temperature Precipitation Wind Pressure Humidity
    00:00 +16°C° 0 mm 2 mps 683 mmHg 39%
    01:00 +16°C° 0 mm 2 mps 683 mmHg 42%
    02:00 +16°C° 0 mm 2 mps 683 mmHg 45%
    03:00 +16°C° 0 mm 2 mps 683 mmHg 47%
    04:00 +15°C° 0 mm 2 mps 683 mmHg 48%
    05:00 +16°C° 0 mm 3 mps 683 mmHg 50%
    06:00 +16°C° 0 mm 3 mps 683 mmHg 52%
    07:00 +15°C° 0 mm 4 mps 684 mmHg 54%
    08:00 +15°C° 0.3 mm 4 mps 684 mmHg 58%
    09:00 +15°C° 0.3 mm 4 mps 684 mmHg 62%
    10:00 +14°C° 0.3 mm 3 mps 684 mmHg 66%
    11:00 +14°C° 0.2 mm 4 mps 684 mmHg 65%
    12:00 +14°C° 0.2 mm 5 mps 684 mmHg 64%
    13:00 +15°C° 0.2 mm 5 mps 684 mmHg 64%
    14:00 +15°C° 0 mm 5 mps 685 mmHg 60%
    15:00 +16°C° 0 mm 6 mps 685 mmHg 57%
    16:00 +17°C° 0 mm 6 mps 685 mmHg 54%
    17:00 +17°C° 0 mm 4 mps 685 mmHg 57%
    18:00 +16°C° 0 mm 3 mps 685 mmHg 60%
    19:00 +15°C° 0 mm 2 mps 685 mmHg 64%
    20:00 +14°C° 0 mm 2 mps 685 mmHg 62%
    21:00 +14°C° 0 mm 2 mps 685 mmHg 60%
    22:00 +14°C° 0 mm 2 mps 685 mmHg 58%
    23:00 +13°C° 0 mm 2 mps 685 mmHg 58%

    Tomorrow, 25 May, Saturday

    Time Temperature Precipitation Wind Pressure Humidity
    00:00 +13°C° 0 mm 2 mps 685 mmHg 57%
    01:00 +13°C° 0 mm 2 mps 685 mmHg 57%
    02:00 +13°C° 0 mm 2 mps 685 mmHg 56%
    03:00 +13°C° 0 mm 2 mps 685 mmHg 56%
    04:00 +13°C° 0 mm 2 mps 685 mmHg 56%
    05:00 +14°C° 0 mm 3 mps 685 mmHg 51%
    06:00 +17°C° 0 mm 3 mps 686 mmHg 46%
    07:00 +19°C° 0 mm 3 mps 686 mmHg 41%
    08:00 +20°C° 0 mm 4 mps 687 mmHg 38%
    09:00 +21°C° 0 mm 4 mps 687 mmHg 34%
    10:00 +22°C° 0 mm 5 mps 687 mmHg 31%
    11:00 +23°C° 0 mm 5 mps 687 mmHg 30%
    12:00 +25°C° 0 mm 5 mps 687 mmHg 28%
    13:00 +26°C° 0 mm 5 mps 687 mmHg 27%
    14:00 +25°C° 0.1 mm 4 mps 687 mmHg 28%
    15:00 +25°C° 0.1 mm 4 mps 687 mmHg 29%
    16:00 +24°C° 0.1 mm 3 mps 687 mmHg 30%
    17:00 +23°C° 0.1 mm 2 mps 686 mmHg 34%
    18:00 +20°C° 0.1 mm 2 mps 686 mmHg 39%
    19:00 +19°C° 0.1 mm 2 mps 686 mmHg 43%
    20:00 +18°C° 0 mm 2 mps 686 mmHg 47%
    21:00 +18°C° 0 mm 1 mps 687 mmHg 50%
    22:00 +18°C° 0 mm 1 mps 687 mmHg 53%
    23:00 +16°C° 0 mm 1 mps 687 mmHg 54%

    Day after tomorrow, 26 May, Sunday

    Time Temperature Precipitation Wind Pressure Humidity
    00:00 +16°C° 0 mm 1 mps 687 mmHg 54%
    01:00 +15°C° 0 mm 1 mps 686 mmHg 54%
    02:00 +15°C° 0 mm 1 mps 686 mmHg 54%
    03:00 +15°C° 0 mm 1 mps 686 mmHg 53%
    04:00 +14°C° 0 mm 1 mps 686 mmHg 53%
    05:00 +16°C° 0 mm 1 mps 687 mmHg 47%
    06:00 +19°C° 0 mm 1 mps 688 mmHg 42%
    07:00 +21°C° 0 mm 1 mps 688 mmHg 36%
    08:00 +22°C° 0 mm 1 mps 689 mmHg 33%
    09:00 +24°C° 0 mm 2 mps 689 mmHg 31%
    10:00 +25°C° 0 mm 3 mps 689 mmHg 28%
    11:00 +26°C° 0 mm 3 mps 689 mmHg 26%
    12:00 +27°C° 0 mm 4 mps 689 mmHg 25%
    13:00 +27°C° 0 mm 4 mps 689 mmHg 23%
    14:00 +27°C° 0 mm 4 mps 688 mmHg 23%
    15:00 +27°C° 0 mm 5 mps 688 mmHg 23%
    16:00 +27°C° 0 mm 5 mps 688 mmHg 22%
    17:00 +25°C° 0 mm 4 mps 688 mmHg 25%
    18:00 +23°C° 0 mm 4 mps 688 mmHg 29%
    19:00 +21°C° 0 mm 3 mps 688 mmHg 32%
    20:00 +20°C° 0 mm 3 mps 688 mmHg 34%
    21:00 +20°C° 0 mm 3 mps 688 mmHg 36%
    22:00 +19°C° 0 mm 2 mps 688 mmHg 37%
    23:00 +18°C° 0 mm 2 mps 687 mmHg 38%

    27 May, Monday

    Time Temperature Precipitation Wind Pressure Humidity
    00:00 +18°C° 0 mm 2 mps 687 mmHg 38%
    01:00 +18°C° 0 mm 2 mps 687 mmHg 39%
    02:00 +17°C° 0 mm 2 mps 687 mmHg 41%
    03:00 +17°C° 0 mm 2 mps 687 mmHg 43%
    04:00 +17°C° 0 mm 2 mps 687 mmHg 45%
    05:00 +18°C° 0 mm 3 mps 687 mmHg 43%
    06:00 +20°C° 0 mm 3 mps 688 mmHg 41%
    07:00 +22°C° 0 mm 4 mps 688 mmHg 39%
    08:00 +23°C° 0 mm 4 mps 688 mmHg 35%
    09:00 +25°C° 0 mm 4 mps 688 mmHg 32%
    10:00 +26°C° 0 mm 4 mps 688 mmHg 29%
    11:00 +27°C° 0 mm 4 mps 688 mmHg 27%
    12:00 +28°C° 0 mm 4 mps 688 mmHg 25%
    13:00 +28°C° 0 mm 4 mps 688 mmHg 24%
    14:00 +28°C° 0 mm 5 mps 688 mmHg 23%
    15:00 +28°C° 0 mm 5 mps 688 mmHg 23%
    16:00 +28°C° 0 mm 5 mps 687 mmHg 22%
    17:00 +27°C° 0 mm 4 mps 687 mmHg 25%
    18:00 +25°C° 0 mm 4 mps 687 mmHg 28%
    19:00 +22°C° 0 mm 4 mps 687 mmHg 30%
    20:00 +22°C° 0 mm 4 mps 687 mmHg 31%
    21:00 +21°C° 0 mm 4 mps 687 mmHg 31%
    22:00 +21°C° 0 mm 4 mps 687 mmHg 31%
    23:00 +20°C° 0 mm 3 mps 687 mmHg 33%

    28 May, Tuesday

    Time Temperature Precipitation Wind Pressure Humidity
    00:00 +20°C° 0 mm 3 mps 686 mmHg 35%
    01:00 +19°C° 0 mm 3 mps 686 mmHg 37%
    02:00 +18°C° 0 mm 3 mps 686 mmHg 37%
    03:00 +18°C° 0 mm 3 mps 686 mmHg 38%
    04:00 +18°C° 0 mm 3 mps 686 mmHg 38%
    05:00 +19°C° 0 mm 3 mps 686 mmHg 36%
    06:00 +21°C° 0 mm 3 mps 687 mmHg 33%
    07:00 +22°C° 0 mm 3 mps 687 mmHg 30%
    08:00 +25°C° 0 mm 3 mps 687 mmHg 27%
    09:00 +26°C° 0 mm 3 mps 687 mmHg 24%
    10:00 +28°C° 0 mm 4 mps 687 mmHg 20%
    11:00 +29°C° 0 mm 4 mps 687 mmHg 19%
    12:00 +30°C° 0 mm 4 mps 687 mmHg 17%
    13:00 +32°C° 0 mm 4 mps 687 mmHg 16%
    14:00 +32°C° 0 mm 4 mps 687 mmHg 16%
    15:00 +32°C° 0 mm 5 mps 687 mmHg 16%
    16:00 +32°C° 0 mm 5 mps 687 mmHg 16%
    17:00 +29°C° 0 mm 4 mps 686 mmHg 19%
    18:00 +27°C° 0 mm 4 mps 686 mmHg 23%
    19:00 +25°C° 0 mm 3 mps 686 mmHg 27%
    20:00 +24°C° 0 mm 3 mps 686 mmHg 28%
    21:00 +24°C° 0 mm 3 mps 686 mmHg 30%
    22:00 +23°C° 0 mm 2 mps 686 mmHg 32%
    23:00 +21°C° 0 mm 2 mps 686 mmHg 32%

    29 May, Wednesday

    Time Temperature Precipitation Wind Pressure Humidity
    00:00 +21°C° 0 mm 2 mps 685 mmHg 32%
    01:00 +21°C° 0 mm 2 mps 685 mmHg 33%
    02:00 +20°C° 0 mm 2 mps 685 mmHg 34%
    03:00 +20°C° 0 mm 2 mps 685 mmHg 35%
    04:00 +20°C° 0 mm 2 mps 685 mmHg 36%
    05:00 +21°C° 0 mm 2 mps 685 mmHg 34%
    06:00 +24°C° 0 mm 2 mps 686 mmHg 31%
    07:00 +26°C° 0 mm 2 mps 686 mmHg 29%
    08:00 +27°C° 0 mm 3 mps 686 mmHg 25%
    09:00 +29°C° 0 mm 3 mps 686 mmHg 22%
    10:00 +30°C° 0 mm 3 mps 687 mmHg 18%
    11:00 +31°C° 0 mm 3 mps 686 mmHg 16%
    12:00 +31°C° 0 mm 3 mps 686 mmHg 15%
    13:00 +33°C° 0 mm 3 mps 686 mmHg 14%
    14:00 +33°C° 0 mm 4 mps 686 mmHg 14%
    15:00 +33°C° 0 mm 4 mps 685 mmHg 14%
    16:00 +33°C° 0 mm 4 mps 685 mmHg 13%
    17:00 +30°C° 0 mm 3 mps 685 mmHg 15%
    18:00 +28°C° 0 mm 3 mps 685 mmHg 16%
    19:00 +27°C° 0 mm 2 mps 684 mmHg 17%
    20:00 +26°C° 0 mm 2 mps 684 mmHg 16%
    21:00 +26°C° 0 mm 2 mps 684 mmHg 15%
    22:00 +25°C° 0 mm 2 mps 684 mmHg 14%
    23:00 +25°C° 0 mm 2 mps 684 mmHg 14%
    Show more